Leesburg, FL

12:57 AM EDT on August 24, 2017 (GMT -0400)
Leesburg Regional

Weather History for KLEE - October, 2012

Change the Weather History Date:

Wednesday, October 31, 2012

  Actual Average Record
Temperature  
Mean Temperature 60 °F -  
Max Temperature 70 °F 80 °F 89 °F (1980)
Min Temperature 52 °F 60 °F 41 °F (1963)
Degree Days  
Heating Degree Days 4    
Growing Degree Days 10 (Base 50)    
Moisture  
Dew Point 42 °F    
Average Humidity 54    
Maximum Humidity 81    
Minimum Humidity 31    
Precipitation  
Precipitation 0.00 in - - ()
Sea Level Pressure  
Sea Level Pressure 30.01 in    
Wind  
Wind Speed 8 mph (WNW)    
Max Wind Speed 16 mph    
Max Gust Speed 24 mph    
Visibility 10 miles    
Events      
Averages and records for this station are not official NWS values.
T = Trace of Precipitation, MM = Missing Value Source: NWS Daily Summary

Daily Weather History Graph

Daily Weather History Graph

Search for Another Location

Airport or City:

Trip Planner

Search our weather history database for the weather conditions in past years. The results will help you decide how hot, cold, wet, or windy it might be!

Date:

Astronomy

Oct. 31, 2012 Rise Set
Actual Time 7:39 AM EDT 6:42 PM EDT
Civil Twilight 7:14 AM EDT 7:06 PM EDT
Nautical Twilight 6:46 AM EDT 7:34 PM EDT
Astronomical Twilight 6:19 AM EDT 8:02 PM EDT
Moon 8:01 PM EDT (10/31) 9:10 AM EDT (10/31)
Length of Visible Light 11h 51m
Length of Day
11h 02m
Full, 97% of the Moon is Illuminated
Oct 31
Full
Nov 6
Last Quarter
Nov 13
New
Nov 20
First Quarter
Nov 28
Full

Hourly Weather History & Observations

Time (EDT) Temp. Dew Point Humidity Pressure Visibility Wind Dir Wind Speed Gust Speed Precip Events Conditions
12:53 AM 55.0 °F 46.0 °F 72% 29.97 in 10.0 mi NW 6.9 mph - N/A   Clear
1:53 AM 54.0 °F 43.0 °F 66% 29.98 in 10.0 mi WNW 4.6 mph - N/A   Clear
2:53 AM 54.0 °F 39.9 °F 59% 29.99 in 10.0 mi NW 6.9 mph - N/A   Clear
3:53 AM 54.0 °F 39.9 °F 59% 29.99 in 10.0 mi WNW 4.6 mph - N/A   Clear
4:53 AM 52.0 °F 41.0 °F 66% 29.99 in 10.0 mi NW 5.8 mph - N/A   Clear
5:53 AM 53.1 °F 39.0 °F 59% 30.00 in 10.0 mi NW 9.2 mph - N/A   Clear
6:53 AM 52.0 °F 39.0 °F 61% 30.02 in 10.0 mi NW 6.9 mph - N/A   Clear
7:53 AM 52.0 °F 37.9 °F 59% 30.02 in 10.0 mi NW 5.8 mph - N/A   Clear
8:53 AM 55.0 °F 39.0 °F 55% 30.05 in 10.0 mi WNW 6.9 mph - N/A   Clear
9:53 AM 59.0 °F 37.9 °F 46% 30.06 in 10.0 mi NW 8.1 mph - N/A   Clear
10:53 AM 62.1 °F 35.1 °F 37% 30.07 in 10.0 mi NW 9.2 mph - N/A   Clear
11:53 AM 64.9 °F 34.0 °F 32% 30.06 in 10.0 mi WNW 9.2 mph - N/A   Clear
12:53 PM 68.0 °F 36.0 °F 31% 30.04 in 10.0 mi WNW 11.5 mph 20.7 mph N/A   Clear
1:53 PM 69.1 °F 37.9 °F 32% 30.01 in 10.0 mi West 16.1 mph 23.0 mph N/A   Clear
3:53 PM 69.1 °F 39.9 °F 35% 29.97 in 10.0 mi West 15.0 mph 23.0 mph N/A   Clear
4:53 PM 68.0 °F 41.0 °F 37% 29.97 in 10.0 mi West 16.1 mph 24.2 mph N/A   Clear
5:53 PM 66.9 °F 42.1 °F 40% 29.98 in 10.0 mi West 15.0 mph 21.9 mph N/A   Clear
6:53 PM 64.0 °F 46.0 °F 52% 29.99 in 10.0 mi West 6.9 mph - N/A   Clear
8:53 PM 60.1 °F 48.0 °F 64% 30.01 in 10.0 mi WSW 6.9 mph - N/A   Clear
9:53 PM 59.0 °F 48.9 °F 69% 30.02 in 10.0 mi WSW 5.8 mph - N/A   Clear
10:53 PM 60.1 °F 51.1 °F 72% 30.02 in 10.0 mi WSW 10.4 mph - N/A   Clear
11:53 PM 59.0 °F 53.1 °F 81% 30.02 in 10.0 mi SW 8.1 mph - N/A   Clear